Vertical_Velocity
-4 -20 -2 7 6 3 0 6 4 -1 11 8 -0 -0 -4 -2 -2 -1 -1 5 2 2 0 0 1 2 4 1 7 1 -3 2 0 -6 3 2 -3 -5 -1 5 -0 -0 3 -6
1 -0 3 7 4 4 8 0 -5 -1 16 1 0 0 -2 0 4 -2 1 0 2 -0 1 3 2 -0 1 -1 1 5 3 -1 3 7 10 4 1 1 -1 0 2 -4 4 -2
-2 -3 1 -0 -5 13 11 7 4 1 8 -1 4 2 -5 2 -3 -1 0 -1 3 2 2 -0 -2 -1 -2 -1 1 -5 4 0 1 -7 -5 -3 2 1 0 0 3 -5 -5 -4
1 2 -3 1 1 12 14 4 -5 -3 0 1 1 6 1 1 2 -0 3 2 2 -1 1 1 -1 -0 -3 -3 0 -0 2 0 1 0 -0 0 -1 -1 0 1 -3 2 -7 0
7 -5 -1 6 -8 13 15 3 -1 -2 -3 2 7 -2 -8 1 -4 3 -3 7 -2 2 1 -3 0 3 2 3 -5 0 -2 -0 1 -1 -0 1 1 -1 0 -0 -1 1 2 -6
3 4 -4 5 -0 11 9 5 -6 6 -7 0 12 -9 -9 -9 5 -6 -3 -3 4 4 -11 1 -2 1 -1 -0 4 -0 2 1 2 -5 0 0 3 -9 -2 -2 -0 1 3 -4
-1 -2 -2 1 2 6 8 -6 0 11 -7 5 -5 2 3 -0 -4 -1 -6 1 4 -2 1 2 2 4 2 4 -3 1 1 1 1 -0 3 4 1 0 -0 1 -2 -1 -1 -1
-1 -1 3 -1 4 1 12 -4 7 0 -3 -3 4 3 -0 1 0 3 4 -4 -11 -0 -2 3 4 5 8 -2 -2 2 2 2 1 2 -1 -6 -8 -2 2 2 -4 -0 1 -1
3 3 4 1 2 1 8 -2 3 8 8 -8 1 3 -2 -2 -2 4 -2 -2 2 -2 1 2 0 -1 -2 4 7 1 4 3 6 3 3 -1 -0 2 0 0 3 1 2 -0
2 -1 4 3 4 2 13 -10 3 17 9 -25 7 -1 -5 4 2 1 1 1 9 3 0 2 0 -1 -0 2 -0 1 4 4 -2 -0 -0 -2 -4 -1 -1 9 16 1 3 2
0 -1 -1 -0 0 2 18 -26 5 0 -2 -16 8 -6 3 3 7 1 -3 5 7 3 5 2 -2 2 -3 3 -2 -5 -7 -1 -1 5 4 -3 0 3 5 12 -2 2 -1 -0
-1 0 0 1 0 2 14 3 8 6 11 -6 -11 -16 -14 -8 6 4 -1 -2 -3 -6 4 4 2 1 1 -1 -1 4 6 -6 -6 -3 -11 1 0 2 3 4 3 -3 0 -3
-1 1 4 -0 2 -3 8 -7 -0 19 8 -1 4 -9 -13 1 -3 -12 2 -5 -1 0 -2 -1 -2 2 3 -1 -7 4 0 1 2 7 -4 -3 4 8 -3 -2 -0 -2 -0 0
-3 -1 3 6 0 7 17 -10 -1 14 6 2 -11 2 -14 3 6 -4 -7 2 1 4 1 2 -0 2 3 -1 -5 1 -6 4 -3 -6 -2 1 -1 -0 0 -0 -0 -3 -1 1
2 4 5 3 4 2 15 3 -10 2 -25 -1 2 -4 -7 3 1 -0 7 11 5 8 4 0 -2 -0 5 -0 3 0 -2 -5 2 -4 2 -1 -3 3 -3 -0 -1 0 -1 -1
-2 7 4 -1 4 25 16 12 31 21 11 -7 3 4 0 -1 5 4 7 -2 11 1 0 -1 -1 -8 0 2 -0 -5 -0 0 -0 6 0 2 -2 5 1 2 0 -2 -2 0
-1 0 6 0 3 -2 -19 -2 -19 -11 3 -4 1 2 5 3 5 12 9 -3 -3 9 1 1 -1 0 3 1 0 4 -2 3 0 2 -4 -2 3 5 -2 -1 0 -0 0 -1
4 2 -2 -2 6 30 3 6 2 -2 -2 -3 1 3 2 -1 1 3 -3 5 7 2 -2 2 1 3 1 2 3 1 -0 -2 3 -1 -0 -0 -0 -0 -1 -1 -2 -1 2 1
1 7 19 70 10 -1 -14 3 22 16 -5 -3 0 -3 -0 1 0 1 6 -2 1 -0 -1 -0 3 1 2 5 1 0 -1 1 0 -1 2 1 0 1 0 -2 -3 3 4 1
8 12 -6 5 4 4 -6 9 -3 -1 -1 2 0 -0 -0 -2 1 3 0 1 -1 1 -1 -3 0 3 2 -0 -0 -1 -1 -2 -2 -1 3 -1 2 2 1 1 2 2 -0 -0
-4 -5 9 17 16 -7 -2 0 -1 2 3 0 -1 -4 -2 -2 -1 -1 -2 -1 -0 3 3 3 1 3 3 1 1 -1 -1 1 2 1 0 1 -0 1 3 2 -2 3 1 0
-5 -16 5 -2 -3 0 -3 0 3 2 -1 2 -0 -1 0 1 -1 1 3 -1 4 2 0 2 2 6 1 -0 1 1 -0 -2 -1 1 3 2 1 2 0 -1 1 1 -1 2
-8 -4 -6 1 2 0 0 1 4 1 1 1 2 2 -4 2 3 1 1 2 2 1 -0 2 5 3 0 1 1 1 0 2 1 1 0 1 1 1 -0 -0 1 1 1 3
-7 -3 -3 -1 1 1 1 1 1 3 0 1 1 1 -0 0 -0 0 -3 4 1 2 1 3 3 2 1 0 2 0 2 0 1 1 1 0 -3 -1 2 3 5 4 -1 -0
-5 -5 2 -0 4 -0 1 -0 0 -1 -2 1 2 -2 0 0 -2 -0 1 3 1 2 3 2 3 2 1 2 1 0 0 1 2 3 2 3 1 1 -1 1 -1 -1 -0 0
-5 -6 -1 -1 -1 1 -1 -0 0 1 1 2 -0 -0 -2 1 -0 -2 1 -0 2 5 1 2 0 1 1 0 1 2 1 0 1 2 2 1 -0 0 -1 2 3 1 1 -0
-3 1 -0 -0 -0 2 1 1 0 -1 2 0 -0 -3 6 1 -1 -0 1 2 3 1 4 2 1 0 1 1 1 2 0 2 2 1 1 -0 1 1 1 -1 1 -0 -1 0
Height
1462 1464 1465 1466 1468 1471 1471 1472 1471 1466 1467 1471 1468 1466 1462 1463 1459 1461 1462 1460 1458 1457 1455 1451 1446 1441 1436 1438 1431 1423 1422 1423 1421 1415 1417 1413 1409 1414 1416 1422 1425 1424 1428 1417
1454 1456 1458 1461 1463 1466 1468 1466 1466 1464 1464 1462 1462 1461 1461 1459 1457 1457 1458 1456 1457 1455 1456 1455 1445 1439 1439 1440 1435 1433 1428 1419 1423 1420 1419 1418 1417 1420 1418 1421 1424 1422 1433 1421
1447 1449 1451 1454 1457 1461 1464 1463 1459 1460 1460 1458 1455 1453 1454 1453 1455 1455 1456 1454 1457 1456 1453 1450 1446 1442 1440 1440 1440 1437 1431 1421 1417 1415 1413 1413 1425 1425 1425 1422 1426 1421 1421 1419
1439 1441 1444 1447 1450 1455 1459 1457 1452 1449 1451 1452 1453 1452 1450 1444 1448 1453 1453 1452 1452 1452 1454 1446 1445 1442 1441 1440 1439 1435 1433 1432 1424 1421 1423 1423 1423 1423 1423 1425 1425 1430 1421 1422
1430 1433 1436 1439 1442 1447 1451 1449 1449 1449 1445 1444 1447 1446 1447 1443 1446 1448 1447 1448 1447 1450 1450 1448 1442 1444 1445 1443 1440 1437 1434 1428 1426 1427 1424 1425 1425 1421 1419 1419 1420 1420 1418 1415
1421 1424 1428 1431 1435 1440 1441 1444 1446 1447 1440 1440 1439 1437 1440 1440 1443 1443 1443 1445 1446 1448 1446 1448 1448 1449 1449 1447 1445 1444 1439 1432 1429 1426 1427 1425 1426 1417 1414 1412 1410 1412 1414 1409
1412 1416 1419 1423 1427 1431 1435 1438 1443 1444 1437 1437 1432 1435 1436 1436 1438 1440 1440 1445 1446 1448 1449 1448 1446 1445 1445 1444 1443 1445 1440 1435 1435 1428 1436 1433 1406 1411 1412 1413 1411 1410 1411 1413
1402 1405 1409 1414 1418 1424 1428 1433 1437 1437 1433 1430 1430 1432 1432 1434 1437 1442 1442 1440 1444 1447 1450 1447 1437 1433 1435 1433 1436 1438 1441 1437 1436 1433 1424 1412 1413 1407 1409 1410 1409 1412 1412 1413
1392 1396 1400 1405 1411 1417 1421 1424 1431 1434 1431 1425 1425 1426 1429 1430 1432 1436 1436 1439 1442 1444 1447 1442 1430 1420 1417 1422 1425 1430 1438 1438 1435 1435 1430 1426 1405 1410 1411 1409 1413 1412 1415 1414
1381 1386 1391 1396 1402 1408 1414 1417 1424 1430 1427 1423 1427 1423 1424 1428 1431 1433 1433 1436 1437 1441 1440 1435 1426 1421 1420 1417 1417 1430 1434 1435 1432 1429 1426 1415 1408 1409 1410 1413 1416 1414 1414 1413
1369 1375 1380 1385 1392 1398 1406 1409 1415 1420 1420 1420 1420 1421 1423 1425 1428 1429 1429 1433 1433 1437 1433 1427 1424 1422 1417 1416 1413 1420 1425 1425 1425 1423 1427 1426 1409 1411 1412 1414 1414 1415 1412 1411
1357 1363 1368 1373 1380 1388 1397 1401 1408 1414 1417 1414 1412 1415 1418 1419 1420 1424 1425 1420 1422 1425 1424 1421 1419 1420 1418 1412 1411 1412 1415 1409 1408 1410 1409 1410 1412 1412 1415 1416 1415 1414 1414 1411
1345 1350 1356 1361 1367 1376 1384 1391 1400 1408 1413 1409 1409 1408 1408 1412 1415 1419 1421 1420 1420 1420 1420 1422 1419 1419 1414 1413 1409 1405 1406 1407 1408 1410 1407 1408 1410 1413 1418 1419 1418 1417 1414 1411
1335 1340 1345 1350 1357 1362 1373 1382 1391 1401 1400 1402 1397 1399 1400 1403 1408 1412 1415 1417 1417 1419 1421 1420 1418 1417 1413 1409 1407 1406 1404 1404 1407 1406 1407 1408 1410 1415 1417 1418 1417 1416 1414 1411
1327 1332 1337 1344 1350 1358 1370 1378 1384 1391 1397 1391 1393 1393 1394 1398 1401 1406 1410 1412 1415 1416 1418 1420 1420 1415 1415 1411 1411 1404 1403 1404 1404 1403 1410 1413 1413 1415 1414 1414 1412 1412 1410 1407
1319 1324 1332 1340 1346 1356 1363 1373 1377 1381 1387 1393 1390 1389 1388 1393 1398 1403 1406 1409 1411 1414 1412 1415 1415 1414 1416 1408 1399 1398 1408 1411 1412 1411 1415 1415 1415 1414 1413 1412 1410 1408 1406 1404
1315 1321 1327 1336 1345 1351 1360 1365 1366 1376 1383 1387 1388 1386 1389 1392 1397 1400 1403 1407 1409 1410 1410 1411 1412 1411 1409 1408 1402 1410 1412 1412 1412 1412 1412 1412 1412 1413 1412 1410 1409 1406 1405 1403
1314 1321 1329 1336 1346 1355 1360 1363 1365 1375 1383 1388 1386 1386 1390 1391 1393 1397 1400 1403 1406 1407 1408 1409 1407 1407 1407 1401 1412 1412 1412 1412 1413 1413 1413 1414 1413 1412 1411 1410 1408 1408 1405 1401
1315 1322 1329 1339 1346 1353 1357 1361 1368 1374 1381 1382 1383 1380 1382 1387 1390 1393 1398 1401 1403 1404 1403 1401 1400 1402 1400 1414 1415 1415 1415 1415 1414 1412 1412 1412 1411 1410 1409 1407 1407 1408 1404 1401
1316 1323 1331 1335 1347 1350 1357 1366 1370 1374 1377 1379 1376 1378 1381 1385 1387 1389 1393 1395 1396 1395 1397 1397 1397 1405 1416 1418 1418 1418 1416 1415 1414 1412 1410 1411 1410 1409 1407 1406 1406 1404 1404 1403
1319 1325 1328 1339 1349 1356 1360 1365 1367 1373 1376 1376 1375 1377 1379 1384 1383 1385 1389 1390 1391 1387 1393 1392 1396 1402 1416 1419 1419 1418 1416 1415 1414 1413 1412 1411 1409 1409 1409 1406 1407 1407 1406 1405
1321 1324 1334 1344 1350 1354 1358 1361 1368 1367 1366 1371 1372 1375 1378 1380 1382 1383 1385 1384 1387 1378 1392 1389 1391 1415 1419 1420 1419 1417 1415 1414 1414 1413 1412 1411 1410 1410 1410 1410 1411 1409 1409 1409
1330 1335 1342 1349 1355 1356 1352 1354 1358 1362 1368 1370 1371 1373 1375 1379 1380 1379 1378 1375 1382 1391 1390 1395 1409 1418 1420 1420 1420 1419 1418 1417 1416 1415 1414 1413 1412 1412 1413 1413 1414 1414 1414 1415
1332 1340 1351 1355 1359 1364 1366 1366 1366 1370 1370 1370 1370 1371 1372 1375 1375 1376 1377 1390 1388 1388 1390 1403 1416 1421 1421 1422 1422 1422 1421 1421 1421 1419 1418 1417 1418 1419 1419 1419 1420 1420 1419 1420
1342 1349 1359 1365 1371 1371 1371 1371 1371 1371 1370 1370 1369 1370 1372 1375 1377 1382 1385 1387 1389 1394 1399 1414 1421 1423 1424 1425 1425 1425 1425 1425 1425 1424 1424 1423 1424 1425 1425 1425 1426 1426 1427 1427
1356 1367 1370 1373 1371 1373 1373 1373 1372 1371 1370 1369 1370 1370 1371 1380 1383 1386 1393 1384 1390 1410 1416 1421 1424 1425 1427 1427 1428 1429 1429 1429 1429 1429 1429 1429 1429 1430 1431 1432 1432 1432 1433 1432
1370 1377 1379 1378 1379 1379 1378 1376 1374 1372 1371 1371 1371 1373 1385 1387 1388 1396 1403 1405 1412 1418 1422 1424 1427 1429 1430 1431 1432 1433 1434 1434 1434 1434 1434 1435 1436 1436 1436 1436 1437 1437 1437 1437